This is the latest recevied weather packets stored in our database for station/object iz1wiy-2. If no packets are shown the sender has not sent any weather packets the latest 10 day(s).
| Time | Temp. | Humidity | Pressure | Rain* | Wind** | Luminosity | Snow |
|---|---|---|---|---|---|---|---|
| 1777961703 | 15.56° C | 84% | 1010.4 hPa | 3.56 mm | - | - | - |
| 1777961403 | 15.56° C | 84% | 1010.4 hPa | 4.06 mm | - | - | - |
| 1777961103 | 15.56° C | 84% | 1010.4 hPa | 4.32 mm | - | - | - |
| 1777960803 | 15.56° C | 84% | 1010.3 hPa | 4.83 mm | - | - | - |
| 1777960503 | 15.56° C | 83% | 1010.4 hPa | 5.08 mm | - | - | - |
| 1777960203 | 15.56° C | 83% | 1010.3 hPa | 5.33 mm | - | - | - |
| 1777959903 | 15.56° C | 83% | 1010.3 hPa | 5.59 mm | - | - | - |
| 1777959603 | 15.56° C | 83% | 1010.5 hPa | 6.1 mm | - | - | - |
| 1777959303 | 15.56° C | 83% | 1010.2 hPa | 6.1 mm | - | - | - |
| 1777959003 | 15.56° C | 83% | 1010.3 hPa | 5.84 mm | - | - | - |
| 1777958703 | 15.56° C | 83% | 1010.3 hPa | 5.33 mm | - | - | - |
| 1777958403 | 15.56° C | 83% | 1010.1 hPa | 5.08 mm | - | - | - |
| 1777958103 | 15° C | 83% | 1010.4 hPa | 5.08 mm | - | - | - |
| 1777957803 | 15° C | 83% | 1010.7 hPa | 5.08 mm | - | - | - |
| 1777957503 | 15° C | 83% | 1011.1 hPa | 4.57 mm | - | - | - |
| 1777957203 | 15° C | 83% | 1011 hPa | 4.32 mm | - | - | - |
| 1777956903 | 15° C | 82% | 1011.1 hPa | 3.81 mm | - | - | - |
| 1777956603 | 15° C | 82% | 1011 hPa | 3.56 mm | - | - | - |
| 1777956304 | 15° C | 82% | 1010.9 hPa | 3.3 mm | - | - | - |
| 1777956003 | 15° C | 82% | 1011.1 hPa | 3.05 mm | - | - | - |
| 1777955703 | 15° C | 82% | 1011.1 hPa | 2.29 mm | - | - | - |
| 1777955403 | 15° C | 82% | 1011.2 hPa | 2.29 mm | - | - | - |
| 1777955103 | 15° C | 82% | 1011.3 hPa | 2.03 mm | - | - | - |
| 1777954803 | 15° C | 81% | 1011.3 hPa | 1.52 mm | - | - | - |
| 1777954503 | 15° C | 81% | 1011.3 hPa | 1.02 mm | - | - | - |
* Rain latest hour (hover to see other rain measurements)
** Current wind speed in m/s (hover to see current wind gust speed)